| time (UTC) | temp F | wind direction | speed knots | gust knots | rain 1hr in | rain 24hr in | rain mn in | humidity % | barometer mb |
| 20260506144220 | 51 | 300 | 2.6 | 5.2 | 0.00 | 0.04 | 0.00 | 63 | 1012.1 |
| 20260506143210 | 51 | 293 | 0.9 | 6.1 | 0.00 | 0.04 | 0.00 | 64 | 1012.2 |
| 20260506142222 | 51 | 300 | 1.7 | 5.2 | 0.00 | 0.04 | 0.00 | 64 | 1012.1 |
| 20260506141217 | 51 | 333 | 0.0 | 6.1 | 0.00 | 0.04 | 0.00 | 66 | 1011.9 |
| 20260506140222 | 51 | 293 | 1.7 | 6.1 | 0.00 | 0.04 | 0.00 | 66 | 1011.8 |
| 20260506135213 | 50 | 294 | 0.9 | 3.5 | 0.00 | 0.04 | 0.00 | 65 | 1011.8 |
| 20260506134224 | 50 | 333 | 0.0 | 4.3 | 0.00 | 0.04 | 0.00 | 67 | 1011.9 |
| 20260506133220 | 50 | 354 | 0.9 | 3.5 | 0.00 | 0.04 | 0.00 | 70 | 1011.7 |
| 20260506132211 | 49 | 304 | 0.9 | 4.3 | 0.00 | 0.04 | 0.00 | 70 | 1011.6 |
| 20260506131222 | 48 | 319 | 0.0 | 5.2 | 0.00 | 0.04 | 0.00 | 72 | 1011.4 |
| 20260506130246 | 48 | 269 | 0.9 | 4.3 | 0.00 | 0.04 | 0.00 | 72 | 1011.3 |
| 20260506125221 | 47 | 339 | 0.0 | 4.3 | 0.00 | 0.04 | 0.00 | 75 | 1011.2 |
| 20260506124210 | 47 | 352 | 0.0 | 4.3 | 0.00 | 0.04 | 0.00 | 76 | 1010.9 |
| 20260506123242 | 46 | 283 | 2.6 | 4.3 | 0.00 | 0.04 | 0.00 | 75 | 1010.9 |
| 20260506122211 | 46 | 284 | 0.9 | 1.7 | 0.00 | 0.04 | 0.00 | 77 | 1010.8 |
| 20260506121225 | 45 | 300 | 0.9 | 2.6 | 0.00 | 0.04 | 0.00 | 75 | 1010.7 |
| 20260506120227 | 45 | 350 | 0.9 | 3.5 | 0.00 | 0.04 | 0.00 | 76 | 1010.8 |
| 20260506115218 | 45 | 307 | 0.9 | 2.6 | 0.00 | 0.04 | 0.00 | 76 | 1010.9 |
| 20260506114228 | 45 | 330 | 0.0 | 0.9 | 0.00 | 0.04 | 0.00 | 75 | 1010.6 |
| 20260506113223 | 45 | 309 | 0.0 | 1.7 | 0.00 | 0.04 | 0.00 | 75 | 1010.4 |
| 20260506112215 | 0 | 0.0 | 0.0 | 0.00 | 0.04 | 0.00 | 1010.4 | ||
| 20260506111225 | 0 | 0.0 | 0.0 | 0.00 | 0.04 | 0.00 | 1010.2 | ||
| 20260506110319 | 0 | 0.0 | 0.0 | 0.00 | 0.04 | 0.00 | 1010.0 | ||
| 20260506105221 | 0 | 0.0 | 0.0 | 0.00 | 0.04 | 0.00 | 1009.9 | ||
| 20260506104252 | 0 | 0.0 | 0.0 | 0.00 | 0.04 | 0.00 | 1009.7 | ||
| 20260506103210 | 0 | 0.0 | 0.0 | 0.00 | 0.04 | 0.00 | 1009.6 | ||
| 20260506102222 | 0 | 0.0 | 0.0 | 0.00 | 0.04 | 0.00 | 1009.6 | ||
| 20260506101315 | 0 | 0.0 | 0.0 | 0.00 | 0.04 | 0.00 | 1009.5 | ||
| 20260506100232 | 0 | 0.0 | 0.0 | 0.00 | 0.04 | 0.00 | 1009.4 | ||
| 20260506095222 | 0 | 0.0 | 0.0 | 0.00 | 0.04 | 0.00 | 1009.2 | ||
| 20260506094220 | 0 | 0.0 | 0.0 | 0.00 | 0.04 | 0.00 | 1009.1 | ||
| 20260506093235 | 0 | 0.0 | 0.0 | 0.00 | 0.04 | 0.00 | 1009.0 | ||
| 20260506092246 | 0 | 0.0 | 0.0 | 0.00 | 0.04 | 0.00 | 1009.1 | ||
| 20260506091227 | 0 | 0.0 | 0.0 | 0.00 | 0.04 | 0.00 | 1009.2 | ||
| 20260506090251 | 0 | 0.0 | 0.0 | 0.00 | 0.04 | 0.00 | 1008.9 | ||
| 20260506085228 | 46 | 304 | 0.9 | 3.5 | 0.00 | 0.04 | 0.00 | 61 | 1008.7 |
| 20260506084219 | 47 | 341 | 0.0 | 2.6 | 0.00 | 0.04 | 0.00 | 62 | 1008.9 |
| 20260506083248 | 47 | 294 | 0.0 | 2.6 | 0.00 | 0.04 | 0.00 | 61 | 1008.9 |
| 20260506082222 | 48 | 291 | 0.9 | 2.6 | 0.00 | 0.04 | 0.00 | 60 | 1008.8 |
| 20260506081214 | 48 | 38 | 0.9 | 3.5 | 0.00 | 0.04 | 0.00 | 60 | 1008.8 |
| 20260506080217 | 48 | 327 | 0.0 | 1.7 | 0.00 | 0.04 | 0.00 | 60 | 1008.8 |
| 20260506073235 | 48 | 336 | 1.7 | 4.3 | 0.00 | 0.04 | 0.00 | 59 | 1008.9 |
| 20260506072225 | 48 | 306 | 0.9 | 2.6 | 0.00 | 0.04 | 0.00 | 59 | 1008.8 |
| 20260506071221 | 48 | 293 | 0.0 | 2.6 | 0.00 | 0.04 | 0.00 | 59 | 1008.7 |
| 20260506070223 | 48 | 360 | 0.0 | 3.5 | 0.00 | 0.04 | 0.00 | 58 | 1008.8 |
| 20260506062212 | 49 | 295 | 0.0 | 0.9 | 0.00 | 0.04 | 0.00 | 59 | 1009.0 |
| 20260506061244 | 49 | 285 | 0.9 | 2.6 | 0.00 | 0.04 | 0.00 | 59 | 1009.1 |
| 20260506060227 | 49 | 295 | 0.9 | 3.5 | 0.00 | 0.04 | 0.00 | 60 | 1009.3 |
| 20260506051221 | 49 | 271 | 0.0 | 1.7 | 0.00 | 0.04 | 0.00 | 59 | 1009.0 |
| 20260506050210 | 49 | 312 | 0.0 | 1.7 | 0.00 | 0.09 | 0.00 | 59 | 1009.1 |
| 20260506044250 | 49 | 281 | 0.0 | 0.9 | 0.00 | 0.09 | 0.00 | 59 | 1009.0 |
| 20260506043219 | 49 | 285 | 0.0 | 1.7 | 0.00 | 0.09 | 0.00 | 59 | 1009.0 |
| 20260506042215 | 49 | 283 | 0.0 | 0.9 | 0.00 | 0.09 | 0.00 | 58 | 1008.8 |
| 20260506041226 | 49 | 282 | 0.9 | 2.6 | 0.00 | 0.09 | 0.00 | 58 | 1008.9 |
| 20260506040230 | 49 | 273 | 0.0 | 0.9 | 0.00 | 0.09 | 0.09 | 59 | 1008.7 |
| 20260506035220 | 49 | 271 | 0.0 | 0.0 | 0.00 | 0.09 | 0.09 | 59 | 1008.7 |
| 20260506034214 | 49 | 271 | 0.0 | 0.0 | 0.00 | 0.09 | 0.09 | 59 | 1008.9 |
| 20260506033226 | 49 | 271 | 0.0 | 0.0 | 0.00 | 0.09 | 0.09 | 59 | 1008.9 |
| 20260506032216 | 49 | 271 | 0.0 | 0.9 | 0.00 | 0.09 | 0.09 | 59 | 1009.0 |
| 20260506031210 | 49 | 267 | 0.0 | 0.9 | 0.00 | 0.09 | 0.09 | 60 | 1009.2 |
| 20260506030235 | 50 | 267 | 0.0 | 0.0 | 0.00 | 0.09 | 0.09 | 58 | 1009.0 |
| 20260506025246 | 50 | 267 | 0.0 | 0.9 | 0.00 | 0.09 | 0.09 | 56 | 1008.9 |
| 20260506024215 | 50 | 269 | 0.0 | 0.9 | 0.00 | 0.09 | 0.09 | 56 | 1009.1 |
| 20260506023227 | 50 | 285 | 0.0 | 0.9 | 0.00 | 0.09 | 0.09 | 54 | 1009.1 |
| 20260506022222 | 50 | 277 | 0.9 | 2.6 | 0.00 | 0.09 | 0.09 | 53 | 1009.0 |
| 20260506021211 | 51 | 278 | 0.0 | 0.9 | 0.00 | 0.09 | 0.09 | 53 | 1009.0 |
| 20260506020216 | 51 | 287 | 0.9 | 1.7 | 0.00 | 0.10 | 0.09 | 52 | 1008.9 |
| 20260506015211 | 51 | 269 | 0.0 | 1.7 | 0.00 | 0.10 | 0.09 | 52 | 1008.7 |
| 20260506014222 | 51 | 283 | 0.0 | 0.9 | 0.00 | 0.10 | 0.09 | 50 | 1008.6 |
| 20260506013213 | 51 | 274 | 0.0 | 1.7 | 0.00 | 0.10 | 0.09 | 49 | 1008.6 |
| 20260506012224 | 52 | 271 | 0.0 | 2.6 | 0.00 | 0.10 | 0.09 | 48 | 1008.4 |
| 20260506011219 | 52 | 326 | 0.0 | 3.5 | 0.00 | 0.10 | 0.09 | 48 | 1008.3 |
| 20260506010225 | 52 | 288 | 1.7 | 6.1 | 0.00 | 0.10 | 0.09 | 47 | 1008.4 |
| 20260506005215 | 52 | 290 | 1.7 | 3.5 | 0.00 | 0.10 | 0.09 | 48 | 1008.5 |
| 20260506004226 | 52 | 291 | 0.9 | 4.3 | 0.00 | 0.10 | 0.09 | 47 | 1008.5 |
| 20260506003221 | 52 | 276 | 1.7 | 3.5 | 0.00 | 0.10 | 0.09 | 47 | 1008.5 |
| 20260506002212 | 53 | 298 | 0.9 | 5.2 | 0.00 | 0.10 | 0.09 | 48 | 1008.3 |
| 20260506001222 | 53 | 6 | 1.7 | 4.3 | 0.00 | 0.10 | 0.09 | 53 | 1008.3 |
| 20260506000211 | 53 | 285 | 0.0 | 4.3 | 0.00 | 0.11 | 0.09 | 55 | 1008.1 |
| 20260505235222 | 53 | 298 | 0.9 | 1.7 | 0.00 | 0.11 | 0.09 | 55 | 1008.0 |
| 20260505234232 | 53 | 281 | 0.9 | 3.5 | 0.00 | 0.11 | 0.09 | 53 | 1007.8 |
| 20260505233242 | 53 | 255 | 1.7 | 4.3 | 0.00 | 0.11 | 0.09 | 52 | 1007.8 |
| 20260505232211 | 53 | 305 | 1.7 | 5.2 | 0.00 | 0.11 | 0.09 | 52 | 1007.7 |
| 20260505231226 | 54 | 232 | 1.7 | 5.2 | 0.00 | 0.11 | 0.09 | 53 | 1007.7 |
| 20260505230211 | 54 | 280 | 0.9 | 4.3 | 0.00 | 0.11 | 0.09 | 53 | 1007.8 |
| 20260505225222 | 54 | 293 | 1.7 | 4.3 | 0.00 | 0.11 | 0.09 | 52 | 1007.8 |
| 20260505224215 | 54 | 271 | 1.7 | 6.1 | 0.00 | 0.11 | 0.09 | 54 | 1007.9 |
| 20260505223227 | 54 | 282 | 1.7 | 6.1 | 0.00 | 0.11 | 0.09 | 56 | 1007.9 |
| 20260505222218 | 55 | 300 | 0.9 | 4.3 | 0.00 | 0.11 | 0.09 | 60 | 1007.9 |
| 20260505221248 | 55 | 304 | 0.9 | 4.3 | 0.00 | 0.11 | 0.09 | 62 | 1007.8 |
| 20260505220216 | 55 | 282 | 1.7 | 5.2 | 0.00 | 0.11 | 0.09 | 63 | 1007.8 |
| 20260505215228 | 55 | 262 | 1.7 | 4.3 | 0.00 | 0.11 | 0.09 | 65 | 1007.9 |
| 20260505214218 | 55 | 294 | 0.9 | 5.2 | 0.00 | 0.11 | 0.09 | 68 | 1007.9 |
| 20260505213230 | 55 | 267 | 0.9 | 3.5 | 0.00 | 0.11 | 0.09 | 70 | 1007.9 |
| 20260505212224 | 55 | 276 | 2.6 | 5.2 | 0.00 | 0.11 | 0.09 | 68 | 1007.8 |
| 20260505211214 | 55 | 278 | 3.5 | 7.0 | 0.00 | 0.11 | 0.09 | 69 | 1007.8 |
| 20260505210219 | 54 | 265 | 0.0 | 4.3 | 0.00 | 0.11 | 0.09 | 73 | 1007.9 |
| 20260505205210 | 54 | 274 | 0.9 | 4.3 | 0.00 | 0.11 | 0.09 | 73 | 1007.9 |
| 20260505204225 | 54 | 267 | 0.9 | 4.3 | 0.00 | 0.11 | 0.09 | 73 | 1008.0 |
| 20260505203216 | 54 | 279 | 0.9 | 5.2 | 0.00 | 0.11 | 0.09 | 73 | 1008.1 |
| 20260505202227 | 54 | 289 | 0.9 | 2.6 | 0.00 | 0.11 | 0.09 | 75 | 1008.0 |
| 20260505201239 | 54 | 264 | 0.0 | 3.5 | 0.00 | 0.11 | 0.09 | 76 | 1008.0 |
| 20260505200247 | 53 | 250 | 0.0 | 1.7 | 0.00 | 0.11 | 0.09 | 77 | 1008.0 |
| 20260505195217 | 53 | 253 | 0.9 | 6.1 | 0.00 | 0.11 | 0.09 | 76 | 1008.0 |
| 20260505194248 | 53 | 309 | 0.9 | 2.6 | 0.00 | 0.11 | 0.09 | 77 | 1008.1 |
| 20260505193217 | 52 | 262 | 0.0 | 2.6 | 0.00 | 0.11 | 0.09 | 77 | 1008.2 |
| 20260505192213 | 52 | 266 | 0.0 | 5.2 | 0.00 | 0.11 | 0.09 | 77 | 1008.2 |
| 20260505191243 | 52 | 257 | 0.0 | 5.2 | 0.00 | 0.11 | 0.09 | 78 | 1008.2 |
| 20260505190227 | 52 | 246 | 0.0 | 1.7 | 0.00 | 0.11 | 0.09 | 79 | 1008.3 |
| 20260505185217 | 52 | 259 | 0.0 | 2.6 | 0.00 | 0.11 | 0.09 | 79 | 1008.4 |
| 20260505184211 | 52 | 242 | 0.9 | 3.5 | 0.00 | 0.11 | 0.09 | 79 | 1008.3 |
| 20260505183243 | 52 | 276 | 0.0 | 1.7 | 0.00 | 0.11 | 0.09 | 80 | 1008.2 |
| 20260505182212 | 51 | 287 | 0.0 | 4.3 | 0.01 | 0.11 | 0.09 | 81 | 1008.0 |
| 20260505181223 | 51 | 242 | 0.0 | 3.5 | 0.01 | 0.11 | 0.09 | 82 | 1008.0 |
| 20260505180210 | 51 | 260 | 0.0 | 4.3 | 0.01 | 0.11 | 0.09 | 83 | 1007.7 |
| 20260505175221 | 50 | 252 | 0.0 | 0.9 | 0.02 | 0.11 | 0.09 | 86 | 1007.8 |
| 20260505174211 | 50 | 262 | 0.0 | 1.7 | 0.02 | 0.11 | 0.09 | 86 | 1007.7 |
| 20260505173221 | 50 | 291 | 0.0 | 3.5 | 0.02 | 0.11 | 0.09 | 87 | 1007.5 |
| 20260505172216 | 50 | 252 | 0.9 | 2.6 | 0.01 | 0.10 | 0.08 | 86 | 1007.4 |
| 20260505171227 | 50 | 272 | 0.9 | 1.7 | 0.02 | 0.10 | 0.08 | 85 | 1007.4 |
| 20260505170232 | 50 | 264 | 0.0 | 2.6 | 0.03 | 0.10 | 0.08 | 86 | 1007.7 |
| 20260505165222 | 50 | 259 | 0.0 | 1.7 | 0.02 | 0.09 | 0.07 | 86 | 1007.6 |
| 20260505164218 | 50 | 265 | 0.0 | 3.5 | 0.02 | 0.09 | 0.07 | 85 | 1007.9 |
| 20260505163228 | 51 | 308 | 0.0 | 4.3 | 0.02 | 0.09 | 0.07 | 84 | 1008.0 |
| 20260505162219 | 52 | 300 | 1.7 | 7.0 | 0.02 | 0.09 | 0.07 | 80 | 1008.0 |
| 20260505161249 | 53 | 302 | 2.6 | 7.0 | 0.01 | 0.08 | 0.06 | 75 | 1008.0 |
| 20260505160215 | 54 | 235 | 3.5 | 10.4 | 0.00 | 0.07 | 0.05 | 71 | 1007.9 |
| 20260505153214 | 57 | 287 | 0.9 | 4.3 | 0.00 | 0.07 | 0.05 | 61 | 1007.3 |
| 20260505152225 | 57 | 262 | 0.0 | 4.3 | 0.00 | 0.07 | 0.05 | 61 | 1006.7 |
| 20260505151218 | 57 | 254 | 1.7 | 4.3 | 0.00 | 0.07 | 0.05 | 60 | 1006.7 |
| 20260505150241 | 57 | 274 | 2.6 | 7.8 | 0.00 | 0.07 | 0.05 | 57 | 1006.5 |